| time (UTC) | temp F | wind direction | speed MPH | gust MPH | rain 1hr in | rain 24hr in | rain mn in | humidity % | barometer mb |
| 20260509210004 | 71 | 101 | 1.0 | 6.0 | 0.00 | 0.01 | 0.01 | 66 | 1008.4 |
| 20260509205525 | 71 | 114 | 2.0 | 6.0 | 0.00 | 0.01 | 0.01 | 66 | 1008.4 |
| 20260509205026 | 71 | 109 | 2.0 | 7.0 | 0.00 | 0.01 | 0.01 | 65 | 1008.4 |
| 20260509204526 | 71 | 113 | 1.0 | 7.0 | 0.00 | 0.01 | 0.01 | 64 | 1008.3 |
| 20260509204005 | 70 | 90 | 1.0 | 5.0 | 0.00 | 0.01 | 0.01 | 66 | 1008.4 |
| 20260509203525 | 70 | 85 | 2.0 | 5.0 | 0.00 | 0.01 | 0.01 | 65 | 1008.3 |
| 20260509203025 | 71 | 87 | 1.0 | 4.0 | 0.00 | 0.01 | 0.01 | 64 | 1008.5 |
| 20260509202525 | 71 | 77 | 1.0 | 4.0 | 0.00 | 0.01 | 0.01 | 67 | 1008.5 |
| 20260509202005 | 71 | 113 | 1.0 | 3.0 | 0.00 | 0.01 | 0.01 | 71 | 1008.6 |
| 20260509201525 | 70 | 79 | 1.0 | 3.0 | 0.00 | 0.01 | 0.01 | 71 | 1008.7 |
| 20260509201025 | 69 | 18 | 0.0 | 3.0 | 0.00 | 0.01 | 0.01 | 74 | 1008.8 |
| 20260509200525 | 69 | 16 | 0.0 | 2.0 | 0.00 | 0.01 | 0.01 | 74 | 1009.0 |
| 20260509200026 | 68 | 18 | 0.0 | 2.0 | 0.00 | 0.01 | 0.01 | 73 | 1009.0 |
| 20260509195504 | 68 | 0 | 0.0 | 0.0 | 0.01 | 0.01 | 0.01 | 73 | 1009.2 |
| 20260509195004 | 68 | 0 | 0.0 | 0.0 | 0.01 | 0.01 | 0.01 | 75 | 1009.2 |
| 20260509194504 | 68 | 0 | 0.0 | 0.0 | 0.01 | 0.01 | 0.01 | 75 | 1009.2 |
| 20260509194025 | 68 | 78 | 0.0 | 1.0 | 0.01 | 0.01 | 0.01 | 78 | 1009.2 |
| 20260509193525 | 67 | 63 | 0.0 | 3.0 | 0.01 | 0.01 | 0.01 | 77 | 1009.3 |
| 20260509193004 | 68 | 35 | 1.0 | 3.0 | 0.01 | 0.01 | 0.01 | 80 | 1009.4 |
| 20260509192525 | 67 | 33 | 1.0 | 3.0 | 0.01 | 0.01 | 0.01 | 82 | 1009.3 |
| 20260509192025 | 66 | 60 | 1.0 | 3.0 | 0.01 | 0.01 | 0.01 | 83 | 1009.3 |
| 20260509191504 | 66 | 78 | 1.0 | 4.0 | 0.01 | 0.01 | 0.01 | 80 | 1009.4 |
| 20260509191004 | 66 | 93 | 1.0 | 4.0 | 0.01 | 0.01 | 0.01 | 81 | 1009.5 |
| 20260509190525 | 66 | 92 | 1.0 | 3.0 | 0.01 | 0.01 | 0.01 | 81 | 1009.7 |
| 20260509190025 | 66 | 93 | 1.0 | 3.0 | 0.01 | 0.01 | 0.01 | 76 | 1009.8 |
| 20260509185504 | 66 | 81 | 1.0 | 4.0 | 0.00 | 0.00 | 0.00 | 75 | 1009.9 |
| 20260509185025 | 66 | 79 | 1.0 | 4.0 | 0.00 | 0.00 | 0.00 | 73 | 1009.9 |
| 20260509184504 | 66 | 0 | 0.0 | 0.0 | 0.00 | 0.00 | 0.00 | 72 | 1009.8 |
| 20260509184004 | 67 | 0 | 0.0 | 0.0 | 0.00 | 0.00 | 0.00 | 71 | 1009.8 |
| 20260509183525 | 67 | 0 | 0.0 | 0.0 | 0.00 | 0.00 | 0.00 | 70 | 1009.7 |
| 20260509183005 | 67 | 0 | 0.0 | 0.0 | 0.00 | 0.00 | 0.00 | 71 | 1009.8 |
| 20260509182525 | 67 | 337 | 0.0 | 2.0 | 0.00 | 0.00 | 0.00 | 71 | 1009.8 |
| 20260509182004 | 66 | 337 | 0.0 | 2.0 | 0.00 | 0.00 | 0.00 | 71 | 1009.9 |
| 20260509181525 | 66 | 337 | 0.0 | 1.0 | 0.00 | 0.00 | 0.00 | 71 | 1010.2 |
| 20260509181025 | 66 | 336 | 0.0 | 1.0 | 0.00 | 0.00 | 0.00 | 70 | 1010.4 |
| 20260509180525 | 66 | 335 | 0.0 | 1.0 | 0.00 | 0.00 | 0.00 | 69 | 1010.4 |
| 20260509180025 | 66 | 346 | 0.0 | 2.0 | 0.00 | 0.00 | 0.00 | 69 | 1010.3 |
| 20260509175525 | 66 | 355 | 1.0 | 3.0 | 0.00 | 0.00 | 0.00 | 68 | 1010.3 |
| 20260509175025 | 66 | 357 | 1.0 | 3.0 | 0.00 | 0.00 | 0.00 | 68 | 1010.2 |
| 20260509174504 | 66 | 354 | 1.0 | 3.0 | 0.00 | 0.00 | 0.00 | 68 | 1010.2 |
| 20260509174004 | 67 | 348 | 0.0 | 2.0 | 0.00 | 0.00 | 0.00 | 68 | 1010.2 |
| 20260509173504 | 67 | 343 | 1.0 | 3.0 | 0.00 | 0.00 | 0.00 | 68 | 1010.3 |
| 20260509173004 | 67 | 332 | 1.0 | 3.0 | 0.00 | 0.00 | 0.00 | 68 | 1010.4 |
| 20260509172504 | 68 | 354 | 1.0 | 4.0 | 0.00 | 0.00 | 0.00 | 67 | 1010.3 |
| 20260509172026 | 68 | 1 | 1.0 | 4.0 | 0.00 | 0.00 | 0.00 | 66 | 1010.3 |
| 20260509171504 | 69 | 355 | 1.0 | 3.0 | 0.00 | 0.00 | 0.00 | 65 | 1010.3 |
| 20260509171004 | 69 | 340 | 1.0 | 2.0 | 0.00 | 0.00 | 0.00 | 63 | 1010.3 |
| 20260509170525 | 69 | 233 | 1.0 | 3.0 | 0.00 | 0.00 | 0.00 | 60 | 1010.3 |
| 20260509170006 | 69 | 233 | 1.0 | 3.0 | 0.00 | 0.00 | 0.00 | 59 | 1010.3 |
| 20260509165525 | 69 | 223 | 1.0 | 3.0 | 0.00 | 0.00 | 0.00 | 60 | 1010.2 |
| 20260509165025 | 69 | 239 | 2.0 | 8.0 | 0.00 | 0.00 | 0.00 | 59 | 1010.2 |
| 20260509164525 | 69 | 215 | 3.0 | 12.0 | 0.00 | 0.00 | 0.00 | 59 | 1010.2 |
| 20260509164025 | 69 | 194 | 3.0 | 12.0 | 0.00 | 0.00 | 0.00 | 58 | 1010.3 |
| 20260509163525 | 70 | 215 | 2.0 | 10.0 | 0.00 | 0.00 | 0.00 | 58 | 1010.3 |
| 20260509163025 | 70 | 221 | 1.0 | 6.0 | 0.00 | 0.00 | 0.00 | 58 | 1010.2 |
| 20260509162505 | 70 | 177 | 1.0 | 5.0 | 0.00 | 0.00 | 0.00 | 60 | 1010.3 |
| 20260509162025 | 70 | 169 | 1.0 | 5.0 | 0.00 | 0.00 | 0.00 | 60 | 1010.4 |
| 20260509161504 | 69 | 137 | 2.0 | 5.0 | 0.00 | 0.00 | 0.00 | 60 | 1010.4 |
| 20260509161006 | 69 | 162 | 2.0 | 7.0 | 0.00 | 0.00 | 0.00 | 59 | 1010.5 |
| 20260509160525 | 70 | 176 | 3.0 | 7.0 | 0.00 | 0.00 | 0.00 | 59 | 1010.6 |
| 20260509160026 | 70 | 179 | 3.0 | 7.0 | 0.00 | 0.00 | 0.00 | 59 | 1010.6 |
| 20260509155525 | 70 | 189 | 3.0 | 7.0 | 0.00 | 0.00 | 0.00 | 58 | 1010.6 |
| 20260509155025 | 71 | 163 | 3.0 | 9.0 | 0.00 | 0.00 | 0.00 | 60 | 1010.6 |
| 20260509154525 | 70 | 151 | 3.0 | 9.0 | 0.00 | 0.00 | 0.00 | 59 | 1010.5 |
| 20260509154025 | 70 | 174 | 3.0 | 7.0 | 0.00 | 0.00 | 0.00 | 59 | 1010.5 |
| 20260509153525 | 70 | 182 | 2.0 | 8.0 | 0.00 | 0.00 | 0.00 | 60 | 1010.7 |
| 20260509153004 | 70 | 148 | 3.0 | 9.0 | 0.00 | 0.00 | 0.00 | 59 | 1010.8 |
| 20260509152525 | 70 | 136 | 2.0 | 9.0 | 0.00 | 0.00 | 0.00 | 59 | 1010.9 |
| 20260509152004 | 69 | 176 | 1.0 | 4.0 | 0.00 | 0.00 | 0.00 | 61 | 1010.9 |
| 20260509151504 | 69 | 166 | 2.0 | 6.0 | 0.00 | 0.00 | 0.00 | 62 | 1011.1 |
| 20260509151004 | 68 | 167 | 1.0 | 6.0 | 0.00 | 0.00 | 0.00 | 63 | 1011.2 |
| 20260509150525 | 67 | 146 | 1.0 | 6.0 | 0.00 | 0.00 | 0.00 | 64 | 1011.3 |
| 20260509150025 | 66 | 154 | 1.0 | 6.0 | 0.00 | 0.00 | 0.00 | 65 | 1011.4 |
| 20260509145504 | 66 | 234 | 0.0 | 2.0 | 0.00 | 0.00 | 0.00 | 67 | 1011.6 |
| 20260509145025 | 65 | 149 | 1.0 | 3.0 | 0.00 | 0.00 | 0.00 | 68 | 1011.6 |
| 20260509144504 | 65 | 142 | 1.0 | 4.0 | 0.00 | 0.00 | 0.00 | 69 | 1011.6 |
| 20260509144025 | 64 | 179 | 2.0 | 4.0 | 0.00 | 0.00 | 0.00 | 67 | 1011.6 |
| 20260509143504 | 64 | 183 | 1.0 | 4.0 | 0.00 | 0.00 | 0.00 | 68 | 1011.6 |
| 20260509143025 | 64 | 182 | 2.0 | 6.0 | 0.00 | 0.00 | 0.00 | 68 | 1011.6 |
| 20260509142504 | 64 | 196 | 2.0 | 6.0 | 0.00 | 0.00 | 0.00 | 68 | 1011.6 |
| 20260509142004 | 64 | 214 | 2.0 | 6.0 | 0.00 | 0.00 | 0.00 | 68 | 1011.6 |
| 20260509141504 | 64 | 229 | 3.0 | 7.0 | 0.00 | 0.00 | 0.00 | 68 | 1011.5 |
| 20260509141005 | 64 | 217 | 3.0 | 7.0 | 0.00 | 0.00 | 0.00 | 68 | 1011.5 |
| 20260509140525 | 64 | 198 | 2.0 | 7.0 | 0.00 | 0.00 | 0.00 | 68 | 1011.6 |
| 20260509140005 | 64 | 176 | 2.0 | 6.0 | 0.00 | 0.00 | 0.00 | 70 | 1011.6 |
| 20260509135504 | 63 | 170 | 2.0 | 7.0 | 0.00 | 0.00 | 0.00 | 69 | 1011.6 |
| 20260509135004 | 63 | 191 | 3.0 | 7.0 | 0.00 | 0.00 | 0.00 | 69 | 1011.6 |
| 20260509134525 | 63 | 230 | 3.0 | 6.0 | 0.00 | 0.00 | 0.00 | 69 | 1011.7 |
| 20260509134025 | 63 | 208 | 3.0 | 6.0 | 0.00 | 0.00 | 0.00 | 69 | 1011.6 |
| 20260509133525 | 63 | 181 | 3.0 | 9.0 | 0.00 | 0.00 | 0.00 | 68 | 1011.6 |
| 20260509133004 | 63 | 176 | 3.0 | 9.0 | 0.00 | 0.00 | 0.00 | 68 | 1011.6 |
| 20260509132504 | 63 | 182 | 2.0 | 7.0 | 0.00 | 0.00 | 0.00 | 69 | 1011.6 |
| 20260509132025 | 63 | 182 | 2.0 | 7.0 | 0.00 | 0.00 | 0.00 | 69 | 1011.5 |
| 20260509131504 | 63 | 171 | 3.0 | 9.0 | 0.00 | 0.00 | 0.00 | 69 | 1011.4 |
| 20260509131025 | 63 | 178 | 5.0 | 14.0 | 0.00 | 0.00 | 0.00 | 70 | 1011.5 |
| 20260509130506 | 62 | 184 | 5.0 | 14.0 | 0.00 | 0.00 | 0.00 | 69 | 1011.4 |
| 20260509130004 | 62 | 180 | 3.0 | 13.0 | 0.00 | 0.00 | 0.00 | 70 | 1011.5 |
| 20260509125506 | 62 | 170 | 3.0 | 11.0 | 0.00 | 0.00 | 0.00 | 71 | 1011.4 |
| 20260509125004 | 61 | 168 | 3.0 | 9.0 | 0.00 | 0.00 | 0.00 | 72 | 1011.4 |
| 20260509124525 | 61 | 173 | 4.0 | 13.0 | 0.00 | 0.00 | 0.00 | 72 | 1011.4 |
| 20260509124004 | 61 | 164 | 4.0 | 13.0 | 0.00 | 0.00 | 0.00 | 71 | 1011.4 |
| 20260509123504 | 61 | 165 | 4.0 | 10.0 | 0.00 | 0.00 | 0.00 | 72 | 1011.5 |
| 20260509123025 | 60 | 169 | 4.0 | 11.0 | 0.00 | 0.00 | 0.00 | 72 | 1011.5 |
| 20260509122505 | 60 | 173 | 3.0 | 11.0 | 0.00 | 0.00 | 0.00 | 72 | 1011.5 |
| 20260509122025 | 60 | 171 | 3.0 | 14.0 | 0.00 | 0.00 | 0.00 | 72 | 1011.5 |
| 20260509121525 | 60 | 164 | 3.0 | 14.0 | 0.00 | 0.00 | 0.00 | 72 | 1011.6 |
| 20260509121006 | 60 | 167 | 4.0 | 12.0 | 0.00 | 0.00 | 0.00 | 72 | 1011.6 |
| 20260509120504 | 60 | 163 | 3.0 | 12.0 | 0.00 | 0.00 | 0.00 | 72 | 1011.6 |
| 20260509120025 | 60 | 157 | 3.0 | 9.0 | 0.00 | 0.00 | 0.00 | 72 | 1011.5 |
| 20260509115504 | 59 | 162 | 3.0 | 11.0 | 0.00 | 0.00 | 0.00 | 72 | 1011.5 |
| 20260509115005 | 59 | 161 | 3.0 | 11.0 | 0.00 | 0.00 | 0.00 | 72 | 1011.6 |
| 20260509114525 | 59 | 166 | 3.0 | 8.0 | 0.00 | 0.00 | 0.00 | 72 | 1011.5 |
| 20260509114025 | 59 | 168 | 3.0 | 9.0 | 0.00 | 0.00 | 0.00 | 72 | 1011.5 |
| 20260509113526 | 59 | 157 | 3.0 | 9.0 | 0.00 | 0.00 | 0.00 | 72 | 1011.5 |
| 20260509113004 | 59 | 169 | 3.0 | 15.0 | 0.00 | 0.00 | 0.00 | 73 | 1011.5 |
| 20260509112525 | 59 | 172 | 4.0 | 15.0 | 0.00 | 0.00 | 0.00 | 72 | 1011.4 |
| 20260509112004 | 59 | 167 | 2.0 | 11.0 | 0.00 | 0.00 | 0.00 | 72 | 1011.4 |
| 20260509111525 | 59 | 156 | 3.0 | 9.0 | 0.00 | 0.00 | 0.00 | 72 | 1011.4 |
| 20260509111025 | 59 | 148 | 3.0 | 10.0 | 0.00 | 0.00 | 0.00 | 72 | 1011.4 |
| 20260509110505 | 59 | 134 | 3.0 | 10.0 | 0.00 | 0.00 | 0.00 | 71 | 1011.5 |
| 20260509110025 | 59 | 143 | 3.0 | 10.0 | 0.00 | 0.00 | 0.00 | 71 | 1011.4 |
| 20260509105504 | 59 | 170 | 3.0 | 7.0 | 0.00 | 0.00 | 0.00 | 71 | 1011.5 |
| 20260509105025 | 59 | 175 | 2.0 | 7.0 | 0.00 | 0.00 | 0.00 | 70 | 1011.4 |
| 20260509104504 | 59 | 157 | 2.0 | 6.0 | 0.00 | 0.00 | 0.00 | 70 | 1011.4 |
| 20260509104004 | 59 | 139 | 1.0 | 6.0 | 0.00 | 0.00 | 0.00 | 69 | 1011.2 |
| 20260509103504 | 59 | 149 | 1.0 | 7.0 | 0.00 | 0.00 | 0.00 | 67 | 1011.2 |
| 20260509103004 | 59 | 160 | 1.0 | 7.0 | 0.00 | 0.00 | 0.00 | 67 | 1011.3 |
| 20260509102525 | 59 | 157 | 1.0 | 6.0 | 0.00 | 0.00 | 0.00 | 67 | 1011.2 |
| 20260509102025 | 59 | 148 | 2.0 | 9.0 | 0.00 | 0.00 | 0.00 | 67 | 1011.2 |
| 20260509101504 | 59 | 155 | 2.0 | 9.0 | 0.00 | 0.00 | 0.00 | 66 | 1011.1 |
| 20260509101004 | 59 | 166 | 1.0 | 6.0 | 0.00 | 0.00 | 0.00 | 66 | 1011.1 |
| 20260509100525 | 59 | 165 | 1.0 | 6.0 | 0.00 | 0.00 | 0.00 | 66 | 1011.0 |
| 20260509100025 | 59 | 162 | 1.0 | 5.0 | 0.00 | 0.00 | 0.00 | 66 | 1011.0 |
| 20260509095505 | 59 | 146 | 1.0 | 5.0 | 0.00 | 0.00 | 0.00 | 66 | 1011.0 |
| 20260509095025 | 59 | 138 | 1.0 | 4.0 | 0.00 | 0.00 | 0.00 | 66 | 1011.0 |
| 20260509094505 | 59 | 143 | 2.0 | 7.0 | 0.00 | 0.00 | 0.00 | 66 | 1011.1 |
| 20260509094004 | 59 | 150 | 2.0 | 7.0 | 0.00 | 0.00 | 0.00 | 66 | 1011.1 |
| 20260509093504 | 59 | 150 | 2.0 | 7.0 | 0.00 | 0.00 | 0.00 | 65 | 1011.1 |
| 20260509093025 | 59 | 142 | 1.0 | 4.0 | 0.00 | 0.00 | 0.00 | 65 | 1011.1 |
| 20260509092525 | 59 | 123 | 2.0 | 8.0 | 0.00 | 0.00 | 0.00 | 66 | 1011.1 |
| 20260509092025 | 59 | 134 | 3.0 | 8.0 | 0.00 | 0.00 | 0.00 | 66 | 1011.0 |
| 20260509091525 | 58 | 152 | 2.0 | 8.0 | 0.00 | 0.00 | 0.00 | 65 | 1011.1 |
| 20260509091004 | 58 | 159 | 2.0 | 6.0 | 0.00 | 0.00 | 0.00 | 66 | 1011.1 |
| 20260509090505 | 58 | 152 | 2.0 | 6.0 | 0.00 | 0.00 | 0.00 | 66 | 1011.1 |
| 20260509090005 | 58 | 156 | 1.0 | 6.0 | 0.00 | 0.00 | 0.00 | 66 | 1011.1 |
| 20260509085505 | 58 | 156 | 1.0 | 3.0 | 0.00 | 0.00 | 0.00 | 66 | 1011.2 |
| 20260509085005 | 58 | 165 | 1.0 | 4.0 | 0.00 | 0.00 | 0.00 | 65 | 1011.2 |
| 20260509084504 | 58 | 177 | 1.0 | 7.0 | 0.00 | 0.00 | 0.00 | 65 | 1011.2 |
| 20260509084025 | 59 | 177 | 1.0 | 7.0 | 0.00 | 0.00 | 0.00 | 65 | 1011.2 |
| 20260509083504 | 59 | 174 | 1.0 | 4.0 | 0.00 | 0.00 | 0.00 | 65 | 1011.4 |
| 20260509083005 | 59 | 171 | 2.0 | 5.0 | 0.00 | 0.00 | 0.00 | 64 | 1011.4 |
| 20260509082505 | 59 | 172 | 2.0 | 7.0 | 0.00 | 0.00 | 0.00 | 65 | 1011.5 |
| 20260509082025 | 59 | 173 | 2.0 | 7.0 | 0.00 | 0.00 | 0.00 | 65 | 1011.6 |
| 20260509081505 | 59 | 175 | 2.0 | 9.0 | 0.00 | 0.00 | 0.00 | 65 | 1011.7 |
| 20260509081025 | 59 | 172 | 3.0 | 9.0 | 0.00 | 0.00 | 0.00 | 64 | 1011.6 |
| 20260509080527 | 59 | 163 | 3.0 | 9.0 | 0.00 | 0.00 | 0.00 | 64 | 1011.7 |
| 20260509080025 | 59 | 159 | 2.0 | 8.0 | 0.00 | 0.00 | 0.00 | 64 | 1011.7 |
| 20260509075525 | 59 | 153 | 2.0 | 6.0 | 0.00 | 0.00 | 0.00 | 64 | 1011.6 |
| 20260509075004 | 59 | 162 | 2.0 | 5.0 | 0.00 | 0.00 | 0.00 | 64 | 1011.6 |
| 20260509074525 | 59 | 172 | 2.0 | 5.0 | 0.00 | 0.00 | 0.00 | 65 | 1011.6 |
| 20260509074025 | 59 | 179 | 2.0 | 8.0 | 0.00 | 0.00 | 0.00 | 65 | 1011.6 |
| 20260509073525 | 59 | 195 | 2.0 | 10.0 | 0.00 | 0.00 | 0.00 | 65 | 1011.6 |
| 20260509073004 | 59 | 197 | 3.0 | 10.0 | 0.00 | 0.00 | 0.00 | 65 | 1011.5 |
| 20260509072526 | 59 | 188 | 3.0 | 10.0 | 0.00 | 0.00 | 0.00 | 65 | 1011.5 |
| 20260509072004 | 58 | 181 | 3.0 | 10.0 | 0.00 | 0.00 | 0.00 | 65 | 1011.6 |
| 20260509071504 | 58 | 175 | 2.0 | 10.0 | 0.00 | 0.00 | 0.00 | 66 | 1011.6 |
| 20260509071004 | 58 | 180 | 3.0 | 9.0 | 0.00 | 0.00 | 0.00 | 67 | 1011.7 |
| 20260509070525 | 58 | 173 | 2.0 | 9.0 | 0.00 | 0.00 | 0.00 | 67 | 1011.7 |
| 20260509070026 | 58 | 164 | 2.0 | 6.0 | 0.00 | 0.00 | 0.00 | 68 | 1011.7 |
| 20260509065504 | 57 | 178 | 2.0 | 5.0 | 0.00 | 0.00 | 0.00 | 68 | 1011.6 |
| 20260509065025 | 57 | 177 | 2.0 | 6.0 | 0.00 | 0.00 | 0.00 | 68 | 1011.7 |
| 20260509064525 | 57 | 179 | 2.0 | 9.0 | 0.00 | 0.00 | 0.00 | 69 | 1011.8 |
| 20260509064026 | 57 | 186 | 2.0 | 9.0 | 0.00 | 0.00 | 0.00 | 69 | 1011.8 |
| 20260509063525 | 57 | 184 | 1.0 | 4.0 | 0.00 | 0.00 | 0.00 | 70 | 1011.9 |
| 20260509063004 | 57 | 178 | 1.0 | 4.0 | 0.00 | 0.00 | 0.00 | 70 | 1012.1 |
| 20260509062504 | 57 | 173 | 0.0 | 3.0 | 0.00 | 0.00 | 0.00 | 70 | 1012.0 |
| 20260509062025 | 57 | 112 | 0.0 | 3.0 | 0.00 | 0.00 | 0.00 | 70 | 1012.0 |
| 20260509061505 | 57 | 145 | 0.0 | 3.0 | 0.00 | 0.00 | 0.00 | 70 | 1012.1 |
| 20260509061005 | 57 | 172 | 1.0 | 6.0 | 0.00 | 0.00 | 0.00 | 69 | 1012.2 |
| 20260509060525 | 57 | 168 | 1.0 | 6.0 | 0.00 | 0.00 | 0.00 | 69 | 1012.2 |
| 20260509060004 | 57 | 160 | 0.0 | 3.0 | 0.00 | 0.00 | 0.00 | 69 | 1012.3 |
| 20260509055525 | 57 | 178 | 0.0 | 3.0 | 0.00 | 0.00 | 0.00 | 69 | 1012.3 |
| 20260509055006 | 57 | 160 | 1.0 | 4.0 | 0.00 | 0.00 | 0.00 | 69 | 1012.3 |
| 20260509054526 | 57 | 126 | 2.0 | 5.0 | 0.00 | 0.00 | 0.00 | 68 | 1012.3 |
| 20260509054026 | 57 | 130 | 2.0 | 5.0 | 0.00 | 0.00 | 0.00 | 68 | 1012.3 |
| 20260509053506 | 57 | 144 | 1.0 | 5.0 | 0.00 | 0.00 | 0.00 | 68 | 1012.3 |
| 20260509053025 | 57 | 127 | 1.0 | 6.0 | 0.00 | 0.00 | 0.00 | 67 | 1012.3 |
| 20260509052504 | 57 | 137 | 1.0 | 6.0 | 0.00 | 0.00 | 0.00 | 67 | 1012.2 |
| 20260509052004 | 57 | 141 | 1.0 | 6.0 | 0.00 | 0.00 | 0.00 | 66 | 1012.2 |
| 20260509051504 | 57 | 136 | 1.0 | 6.0 | 0.00 | 0.00 | 0.00 | 66 | 1012.1 |
| 20260509051025 | 58 | 153 | 2.0 | 6.0 | 0.00 | 0.00 | 0.00 | 66 | 1012.3 |
| 20260509050525 | 58 | 150 | 2.0 | 6.0 | 0.00 | 0.00 | 0.00 | 66 | 1012.3 |
| 20260509050025 | 58 | 148 | 2.0 | 6.0 | 0.00 | 0.00 | 0.00 | 66 | 1012.3 |
| 20260509045525 | 58 | 161 | 2.0 | 4.0 | 0.00 | 0.00 | 0.00 | 66 | 1012.4 |
| 20260509045004 | 58 | 154 | 1.0 | 6.0 | 0.00 | 0.00 | 0.00 | 66 | 1012.3 |
| 20260509044504 | 58 | 140 | 1.0 | 6.0 | 0.00 | 0.00 | 0.00 | 66 | 1012.4 |
| 20260509044005 | 58 | 149 | 2.0 | 7.0 | 0.00 | 0.00 | 0.00 | 66 | 1012.4 |
| 20260509043504 | 58 | 159 | 2.0 | 7.0 | 0.00 | 0.00 | 0.00 | 66 | 1012.4 |
| 20260509043004 | 58 | 161 | 2.0 | 6.0 | 0.00 | 0.00 | 0.00 | 66 | 1012.3 |
| 20260509042525 | 58 | 165 | 2.0 | 6.0 | 0.00 | 0.00 | 0.00 | 66 | 1012.4 |
| 20260509042004 | 58 | 171 | 2.0 | 6.0 | 0.00 | 0.00 | 0.00 | 66 | 1012.3 |
| 20260509041504 | 58 | 180 | 2.0 | 5.0 | 0.00 | 0.00 | 0.00 | 67 | 1012.3 |
| 20260509041004 | 58 | 170 | 2.0 | 6.0 | 0.00 | 0.00 | 0.00 | 67 | 1012.4 |
| 20260509040525 | 59 | 159 | 2.0 | 7.0 | 0.00 | 0.00 | 0.00 | 67 | 1012.4 |
| 20260509040004 | 59 | 159 | 2.0 | 10.0 | 0.00 | 0.00 | 0.00 | 67 | 1012.4 |
| 20260509035526 | 59 | 160 | 2.0 | 10.0 | 0.00 | 0.00 | 0.00 | 68 | 1012.4 |
| 20260509035025 | 59 | 162 | 2.0 | 7.0 | 0.00 | 0.00 | 0.00 | 69 | 1012.4 |
| 20260509034504 | 59 | 170 | 2.0 | 6.0 | 0.00 | 0.00 | 0.00 | 70 | 1012.4 |
| 20260509034027 | 59 | 160 | 2.0 | 6.0 | 0.00 | 0.00 | 0.00 | 70 | 1012.4 |
| 20260509033506 | 59 | 161 | 3.0 | 8.0 | 0.00 | 0.00 | 0.00 | 71 | 1012.5 |
| 20260509033004 | 58 | 161 | 2.0 | 8.0 | 0.00 | 0.00 | 0.00 | 72 | 1012.6 |
| 20260509032505 | 58 | 156 | 2.0 | 7.0 | 0.00 | 0.00 | 0.00 | 73 | 1012.6 |
| 20260509032004 | 58 | 149 | 2.0 | 7.0 | 0.00 | 0.00 | 0.00 | 74 | 1012.6 |
| 20260509031504 | 57 | 131 | 2.0 | 7.0 | 0.00 | 0.00 | 0.00 | 76 | 1012.6 |
| 20260509031025 | 57 | 135 | 1.0 | 7.0 | 0.00 | 0.00 | 0.00 | 78 | 1012.6 |
| 20260509030526 | 57 | 164 | 0.0 | 3.0 | 0.00 | 0.00 | 0.00 | 79 | 1012.7 |
| 20260509030026 | 57 | 148 | 0.0 | 2.0 | 0.00 | 0.00 | 0.00 | 78 | 1012.7 |
| 20260509025525 | 58 | 159 | 0.0 | 2.0 | 0.00 | 0.00 | 0.00 | 78 | 1012.7 |
| 20260509025025 | 58 | 139 | 0.0 | 3.0 | 0.00 | 0.00 | 0.00 | 77 | 1012.7 |
| 20260509024525 | 58 | 129 | 0.0 | 3.0 | 0.00 | 0.00 | 0.00 | 76 | 1012.7 |
| 20260509024005 | 58 | 150 | 0.0 | 2.0 | 0.00 | 0.00 | 0.00 | 76 | 1012.6 |
| 20260509023504 | 58 | 148 | 0.0 | 2.0 | 0.00 | 0.00 | 0.00 | 75 | 1012.6 |
| 20260509023026 | 58 | 138 | 0.0 | 2.0 | 0.00 | 0.00 | 0.00 | 74 | 1012.6 |
| 20260509022504 | 59 | 141 | 0.0 | 2.0 | 0.00 | 0.00 | 0.00 | 73 | 1012.6 |
| 20260509022025 | 59 | 182 | 0.0 | 2.0 | 0.00 | 0.00 | 0.00 | 72 | 1012.6 |
| 20260509021504 | 59 | 186 | 0.0 | 2.0 | 0.00 | 0.00 | 0.00 | 71 | 1012.6 |
| 20260509021004 | 60 | 188 | 0.0 | 2.0 | 0.00 | 0.00 | 0.00 | 69 | 1012.6 |
| 20260509020505 | 60 | 188 | 0.0 | 2.0 | 0.00 | 0.00 | 0.00 | 69 | 1012.5 |
| 20260509020025 | 60 | 137 | 0.0 | 1.0 | 0.00 | 0.00 | 0.00 | 68 | 1012.5 |
| 20260509015504 | 60 | 137 | 0.0 | 2.0 | 0.00 | 0.00 | 0.00 | 67 | 1012.5 |
| 20260509015025 | 60 | 137 | 0.0 | 2.0 | 0.00 | 0.00 | 0.00 | 67 | 1012.5 |
| 20260509014504 | 61 | 122 | 0.0 | 1.0 | 0.00 | 0.00 | 0.00 | 66 | 1012.6 |
| 20260509014026 | 61 | 122 | 0.0 | 1.0 | 0.00 | 0.00 | 0.00 | 66 | 1012.6 |
| 20260509013504 | 61 | 122 | 0.0 | 1.0 | 0.00 | 0.00 | 0.00 | 65 | 1012.5 |
| 20260509013004 | 61 | 122 | 0.0 | 1.0 | 0.00 | 0.00 | 0.00 | 65 | 1012.5 |
| 20260509012504 | 62 | 122 | 0.0 | 1.0 | 0.00 | 0.00 | 0.00 | 65 | 1012.6 |
| 20260509012004 | 62 | 122 | 0.0 | 1.0 | 0.00 | 0.00 | 0.00 | 64 | 1012.5 |
| 20260509011504 | 62 | 123 | 0.0 | 2.0 | 0.00 | 0.00 | 0.00 | 64 | 1012.5 |
| 20260509011025 | 62 | 119 | 0.0 | 2.0 | 0.00 | 0.00 | 0.00 | 64 | 1012.4 |
| 20260509010504 | 62 | 115 | 0.0 | 3.0 | 0.00 | 0.00 | 0.00 | 63 | 1012.3 |
| 20260509010004 | 62 | 125 | 0.0 | 3.0 | 0.00 | 0.00 | 0.00 | 63 | 1012.3 |
| 20260509005526 | 62 | 146 | 1.0 | 3.0 | 0.00 | 0.00 | 0.00 | 63 | 1012.3 |
| 20260509005025 | 62 | 175 | 1.0 | 2.0 | 0.00 | 0.00 | 0.00 | 63 | 1012.2 |
| 20260509004525 | 62 | 184 | 1.0 | 2.0 | 0.00 | 0.00 | 0.00 | 62 | 1012.2 |
| 20260509004025 | 62 | 167 | 1.0 | 3.0 | 0.00 | 0.00 | 0.00 | 62 | 1012.1 |
| 20260509003504 | 62 | 147 | 1.0 | 3.0 | 0.00 | 0.00 | 0.00 | 62 | 1012.1 |
| 20260509003005 | 62 | 164 | 1.0 | 3.0 | 0.00 | 0.00 | 0.00 | 62 | 1012.1 |
| 20260509002504 | 63 | 149 | 1.0 | 4.0 | 0.00 | 0.00 | 0.00 | 61 | 1012.0 |
| 20260509002025 | 63 | 142 | 1.0 | 6.0 | 0.00 | 0.00 | 0.00 | 61 | 1012.0 |
| 20260509001525 | 63 | 135 | 2.0 | 6.0 | 0.00 | 0.00 | 0.00 | 61 | 1011.9 |
| 20260509001025 | 63 | 131 | 2.0 | 6.0 | 0.00 | 0.00 | 0.00 | 61 | 1011.8 |
| 20260509000525 | 63 | 146 | 1.0 | 4.0 | 0.00 | 0.00 | 0.00 | 61 | 1011.8 |
| 20260509000004 | 63 | 168 | 1.0 | 4.0 | 0.00 | 0.00 | 0.00 | 60 | 1011.8 |
| 20260508235503 | 63 | 159 | 2.0 | 4.0 | 0.00 | 0.00 | 0.00 | 60 | 1011.7 |
| 20260508235025 | 63 | 142 | 2.0 | 6.0 | 0.00 | 0.00 | 0.00 | 60 | 1011.7 |
| 20260508234504 | 64 | 153 | 1.0 | 6.0 | 0.00 | 0.00 | 0.00 | 59 | 1011.7 |
| 20260508234026 | 64 | 148 | 1.0 | 7.0 | 0.00 | 0.00 | 0.00 | 59 | 1011.7 |
| 20260508233505 | 64 | 141 | 2.0 | 9.0 | 0.00 | 0.00 | 0.00 | 59 | 1011.7 |
| 20260508233025 | 64 | 150 | 2.0 | 9.0 | 0.00 | 0.00 | 0.00 | 58 | 1011.6 |
| 20260508232504 | 65 | 148 | 2.0 | 8.0 | 0.00 | 0.00 | 0.00 | 57 | 1011.5 |
| 20260508232025 | 65 | 143 | 3.0 | 8.0 | 0.00 | 0.00 | 0.00 | 55 | 1011.6 |
| 20260508231504 | 66 | 131 | 3.0 | 9.0 | 0.00 | 0.00 | 0.00 | 54 | 1011.6 |
| 20260508231025 | 67 | 121 | 3.0 | 11.0 | 0.00 | 0.00 | 0.00 | 52 | 1011.4 |
| 20260508230504 | 68 | 118 | 3.0 | 11.0 | 0.00 | 0.00 | 0.00 | 49 | 1011.4 |
| 20260508230004 | 69 | 147 | 2.0 | 8.0 | 0.00 | 0.00 | 0.00 | 42 | 1011.2 |
| 20260508225504 | 69 | 163 | 2.0 | 7.0 | 0.00 | 0.00 | 0.00 | 38 | 1011.2 |
| 20260508225004 | 69 | 159 | 2.0 | 6.0 | 0.00 | 0.00 | 0.00 | 37 | 1011.1 |
| 20260508224505 | 69 | 178 | 2.0 | 6.0 | 0.00 | 0.00 | 0.00 | 37 | 1011.1 |
| 20260508224005 | 69 | 195 | 1.0 | 4.0 | 0.00 | 0.00 | 0.00 | 37 | 1011.2 |
| 20260508223504 | 69 | 196 | 2.0 | 5.0 | 0.00 | 0.00 | 0.00 | 36 | 1011.2 |
| 20260508223004 | 69 | 181 | 3.0 | 11.0 | 0.00 | 0.00 | 0.00 | 36 | 1011.3 |
| 20260508222525 | 70 | 173 | 3.0 | 11.0 | 0.00 | 0.00 | 0.00 | 36 | 1011.2 |
| 20260508222004 | 70 | 175 | 3.0 | 9.0 | 0.00 | 0.00 | 0.00 | 37 | 1011.3 |
| 20260508221525 | 70 | 181 | 3.0 | 9.0 | 0.00 | 0.00 | 0.00 | 35 | 1011.3 |
| 20260508221025 | 70 | 175 | 3.0 | 9.0 | 0.00 | 0.00 | 0.00 | 35 | 1011.3 |
| 20260508220525 | 70 | 179 | 3.0 | 10.0 | 0.00 | 0.00 | 0.00 | 36 | 1011.3 |
| 20260508220004 | 71 | 181 | 4.0 | 11.0 | 0.00 | 0.00 | 0.00 | 34 | 1011.3 |
| 20260508215505 | 71 | 180 | 5.0 | 14.0 | 0.00 | 0.00 | 0.00 | 34 | 1011.3 |
| 20260508215025 | 72 | 177 | 5.0 | 14.0 | 0.00 | 0.00 | 0.00 | 33 | 1011.3 |
| 20260508214504 | 73 | 179 | 4.0 | 12.0 | 0.00 | 0.00 | 0.00 | 32 | 1011.2 |
| 20260508214025 | 74 | 176 | 3.0 | 14.0 | 0.00 | 0.00 | 0.00 | 32 | 1011.2 |
| 20260508213504 | 74 | 174 | 3.0 | 14.0 | 0.00 | 0.00 | 0.00 | 32 | 1011.1 |
| 20260508213025 | 73 | 197 | 4.0 | 12.0 | 0.00 | 0.00 | 0.00 | 30 | 1011.1 |
| 20260508212505 | 73 | 201 | 5.0 | 12.0 | 0.00 | 0.00 | 0.00 | 31 | 1011.1 |
| 20260508212025 | 73 | 215 | 5.0 | 12.0 | 0.00 | 0.00 | 0.00 | 30 | 1011.1 |
| 20260508211525 | 74 | 260 | 4.0 | 10.0 | 0.00 | 0.00 | 0.00 | 29 | 1011.1 |
| 20260508211025 | 73 | 234 | 4.0 | 10.0 | 0.00 | 0.00 | 0.00 | 29 | 1011.2 |
| 20260508210503 | 73 | 214 | 4.0 | 10.0 | 0.00 | 0.00 | 0.00 | 31 | 1011.1 |